AirNav   Phillips 66 Aviation Fuel
 
 982 users online  

L88 New Cuyama Airport
New Cuyama, California, USA

GOING TO NEW CUYAMA?


FAA INFORMATION EFFECTIVE 19 JULY 2018

Location

FAA Identifier: L88
Lat/Long: 34-56-23.8000N / 119-41-08.1000W
34-56.396667N / 119-41.135000W
34.9399444 / -119.6855833
(estimated)
Elevation: 2203 ft. / 671 m (estimated)
Variation: 14E (1985)
Time zone: UTC -7 (UTC -8 during Standard Time)
Zip code: 93254

Airport Operations

Airport use: Open to the public
Activation date: 09/1950
Control tower: no
ARTCC: LOS ANGELES CENTER
FSS: RANCHO MURIETA FLIGHT SERVICE STATION
NOTAMs facility: RIU (NOTAM-D service available)
Attendance: UNATNDD
Wind indicator: yes
Segmented circle: yes

Airport Communications

CTAF: 122.9

Nearby radio navigation aids

VOR radial/distance  VOR name  Freq  Var
FLWr120/12.8FELLOWS VOR/DME117.5016E
RZSr355/26.2SAN MARCUS VORTAC114.9014E
GVOr023/31.6GAVIOTA VORTAC113.8016E

Airport Services

Parking: tiedowns
Airframe service: NONE
Powerplant service: NONE
Bottled oxygen: NONE
Bulk oxygen: NONE

Runway Information

Runway 10/28

Dimensions: 3940 x 60 ft. / 1201 x 18 m
Surface: asphalt, in poor condition
RUNWAY 10  RUNWAY 28
Latitude: 34-56.541333N34-56.251667N
Longitude: 119-41.488833W119-40.782667W
Traffic pattern: rightleft
Markings: basic, in fair conditionbasic, in fair condition
Runway end identifier lights: nono
Obstructions: 20 ft. tree, 250 ft. from runway, 2:1 slope to clear4 ft. fence, 200 ft. from runway, 80 ft. left of centerline

Airport Ownership and Management from official FAA records

Ownership: Privately-owned
Owner: ZANNON FAMILY FOUNDATION
P.O. BOX 21957
SANTA BARBARA, CA 93121
Phone 805-962-5200
EUGENE F. ZANNON, TRUSTEE
Manager: HARRY CURTIS
PO BOX 359
NEW CUYAMA, CA 93254
Phone 805-440-5022

Airport Operational Statistics

Aircraft operations: avg 42/month *
100% transient general aviation
* for 12-month period ending 30 May 2017

Additional Remarks

ACFT PRKG 125 FT N OF RWY CNTRLN AT RWY 10 APCH END.
RWY 10 +25 FT PWR POLES & PLINES RUN PARTIALLY UNDERGROUND 270 FT BYD RWY END, 164 FT R OF CNTRLN.

Instrument Procedures

There are no published instrument procedures at L88.

Some nearby airports with instrument procedures:

KIZA - Santa Ynez Airport (28 nm SW)
KSBA - Santa Barbara Municipal Airport (32 nm S)
KSMX - Santa Maria Public Airport/Capt G Allan Hancock Field (38 nm W)
L45 - Bakersfield Municipal Airport (41 nm NE)
KMIT - Shafter Airport-Minter Field (42 nm NE)
 
Loc | Ops | Rwys | IFR | FBO | Links
Com | Nav | Svcs | Stats | Notes


 
Area around L88 (New Cuyama Airport)
 
Road maps at: MapQuest Bing Google
 
Aerial photo
WARNING: Photo may not be current or correct
Aerial photo of L88 (New Cuyama Airport)
Photo taken 03-Mar-2016
looking west.

Do you have a better or more recent aerial photo of New Cuyama Airport that you would like to share? If so, please send us your photo.

 
Sectional chart

 
Airport distance calculator
Flying to New Cuyama Airport? Find the distance to fly.

From to L88

Sunrise and sunset
Times for 19-Jul-2018
 Local
(UTC-7)
 Zulu
(UTC)
Morning civil twilight05:3112:31
Sunrise06:0013:00
Sunset20:1003:10
Evening civil twilight20:3903:39

Current date and time
Zulu (UTC)  20-Jul-2018 02:05:19
Local (UTC-7)  19-Jul-2018 19:05:19
 
METAR
KIZA 
28nm SW 
200155Z AUTO 27008KT 10SM CLR 27/16 A2989 RMK AO2
KSBA 
31nm S 
200153Z 26008KT 10SM CLR 21/17 A2989 RMK AO2 SLP123 T02060172
KSMX 
38nm W 
200151Z 30007KT 10SM CLR 20/16 A2992 RMK AO2 SLP132 T02000156
KLPC 
42nm SW 
200156Z AUTO 27011KT 10SM CLR 18/15 A2991 RMK AO2 SLP132 T01780150
KBFL 
43nm NE 
200154Z 35010KT 10SM CLR 41/09 A2975 RMK AO2 SLP066 T04060089
2CN4 
45nm N 
SuperAWOS
200055Z AUTO 31009G15KT 210V050 10SM 37/16 A2983
KVBG 
47nm SW 
200158Z AUTO 33006KT 10SM SCT005 17/15 A2992 RMK AO2 VIS 1 1/2 RWY12 SLP134 T01670147
KSDB 
49nm E 
200153Z AUTO 17016G22KT 10SM CLR 27/16 A3010 RMK AO2 SLP130 T02670156
KSBP 
50nm W 
200156Z 31009KT 10SM CLR 22/14 A2990 RMK AO2 SLP124 T02220144
TAF
KSBA 
31nm S 
191735Z 1918/2018 15006KT P6SM SCT007 FM192000 23008KT P6SM SCT250 FM200400 VRB03KT P6SM SCT250 FM200700 VRB03KT P6SM OVC008 FM201600 14005KT P6SM BKN010
KSMX 
38nm W 
191735Z 1918/2018 00000KT P6SM SCT150 FM192100 26008KT P6SM SCT250 FM200300 VRB03KT P6SM SCT250 FM200700 VRB03KT 5SM BR BKN004 FM201600 VRB03KT P6SM SCT007
NOTAMs
Click for the latest NOTAMs
NOTAMs are issued by the DoD/FAA and will open in a separate window not controlled by AirNav.

 

 
 

Would you like to see your business listed on this page?

 If your business provides an interesting product or service to pilots, flight crews, aircraft, or users of the New Cuyama Airport, you should consider listing it here.  To start the listing process, click on the button below
 
Add a business
 

Other Pages about New Cuyama Airport

Update a link
 
Copyright © AirNav, LLC. All rights reserved. Privacy Policy  Contact